SCP
0 0 0 0 0 0 0 0 0 0 0 0 0 0 0 0 0 0 0 0 0 0 0 0 0 0 0 0 0 0 0 0 0 0 0 0 0 0 0 0 0 0 0 0
0 0 0 0 0 0 0 0 0 0 0 0 0 0 0 0 0 0 0 0 0 0 0 0 0 0 0 0 0 0 0 0 0 0 0 0 0 0 0 0 0 0 0 0
0 0 0 0 0 0 0 0 0 0 0 0 -0 -0 0 0 0 0 0 0 0 0 0 0 0 0 0 0 0 0 0 0 0 0 0 0 0 0 0 0 0 0 0 0
-0 0 0 0 0 0 0 0 0 0 0 0 0 0 0 0 0 0 0 0 0 0 0 0 0 0 0 0 0 0 0 0 0 0 0 0 0 0 0 0 0 0 0 0
0 0 0 0 0 0 0 0 0 0 0 0 0 0 0 0 0 0 0 0 0 0 0 0 0 0 0 0 0 0 0 0 0 0 0 0 0 0 0 0 0 0 0 0
0 0 0 0 0 0 0 0 0 0 0 0 0 0 0 0 0 0 0 0 0 0 0 0 0 0 0 0 0 0 0 0 0 0 0 0 0 0 0 0 0 0 0 0
0 0 0 0 0 0 0 0 0 0 0 0 0 0 0 0 0 0 0 0 0 0 0 0 0 0 0 0 0 0 0 0 0 0 0 0 0 0 0 0 0 0 0 0
0 0 0 0 0 0 0 0 0 0 0 0 0 0 0 0 0 0 0 0 0 0 0 0 0 0 0 0 0 0 0 0 0 0 0 0 0 0 0 0 0 0 0 0
0 0 0 0 0 0 0 0 0 0 0 0 0 0 0 0 0 0 0 0 0 0 0 0 0 0 0 0 0 0 0 0 0 0 0 0 0 0 0 0 0 0 0 0
0 0 0 0 0 0 0 0 0 0 0 0 0 0 0 0 0 0 0 0 0 0 0 0 0 0 0 0 0 0 0 0 0 0 0 0 0 0 0 0 0 0 0 0
0 0 0 0 0 0 0 0 0 0 0 0 0 0 0 0 0 0 0 0 0 0 0 0 0 0 0 0 0 0 0 0 0 0 0 0 0 0 0 0 0 0 0 0
0 0 0 0 0 0 0 0 0 0 0 0 0 0 0 0 0 0 0 0 0 0 0 0 0 0 0 0 0 0 0 0 0 0 0 0 0 0 0 0 0 0 0 0
0 0 0 0 0 0 0 0 0 0 0 0 0 0 0 0 0 0 0 0 0 0 0 0 0 -0 -0 -0 0 0 0 0 0 0 0 0 0 0 0 0 0 0 0 0
0 0 0 0 0 0 0 0 0 0 0 0 0 0 0 0 0 0 0 0 0 0 0 -0 -0 -0 -0 0 0 0 0 0 0 0 0 0 0 0 0 0 0 0 0 0
0 0 0 0 0 0 0 0 0 0 0 0 0 0 0 0 0 0 0 0 0 -0 -0 -0 0 0 -0 -0 0 0 0 0 0 0 0 0 0 0 0 0 0 0 0 -0
0 0 0 0 0 0 0 0 0 0 0 0 0 0 0 0 0 0 0 0 -0 -0 -0 0 0 -0 0 -0 0 0 0 0 0 0 0 0 0 0 0 0 0 0 0 -0
0 0 0 0 0 0 0 0 0 0 0 0 0 0 0 0 0 0 0 0 0 0 0 0 -0 -0 0 -0 0 0 0 0 0 0 0 0 0 0 0 0 0 0 0 0
0 0 0 0 0 0 0 0 0 0 0 0 0 0 0 0 0 0 0 0 0 0 0 -0 -0 -0 0 -0 0 0 0 0 0 0 0 0 0 0 0 0 0 0 0 0
0 0 0 0 0 0 0 0 0 0 0 0 0 0 0 0 0 0 0 0 0 -0 -0 -0 -0 -0 -0 0 0 0 0 0 0 0 0 0 0 0 0 0 0 0 0 0
0 0 0 0 0 0 0 0 0 0 0 0 0 0 0 0 0 0 0 0 0 -0 -0 -0 -0 -0 -0 0 0 0 0 0 0 0 0 0 0 0 0 0 0 0 0 0
0 0 0 0 0 0 0 0 0 0 0 0 0 0 0 0 0 0 0 0 -0 -0 -0 -0 -0 -0 -0 0 0 0 0 0 0 0 0 0 0 0 0 0 0 0 0 0
0 0 0 -0 -0 0 0 0 0 0 0 0 0 0 0 0 0 0 0 0 0 -0 0 -0 -0 -0 0 0 0 0 0 0 0 0 0 0 0 0 0 0 0 0 0 0
0 0 0 0 0 0 -0 0 0 0 0 0 0 0 0 0 0 0 0 0 0 -0 -0 -0 -0 -0 -0 0 0 0 0 0 0 0 0 0 0 0 0 0 0 0 0 0
0 0 0 0 0 0 -0 0 0 0 0 0 0 0 0 0 0 0 0 0 -0 -0 -0 -0 -0 -0 -0 0 0 0 0 0 0 0 0 0 0 0 0 0 -0 -0 -0 -0
-0 0 0 0 0 -0 -0 0 0 0 0 0 0 0 0 0 0 0 0 0 -0 -0 -0 -0 -0 -0 -0 -0 -0 -0 0 0 0 0 0 0 0 0 0 0 0 -0 -0 -0
-0 -0 -0 0 0 -0 -0 0 0 0 0 0 0 0 0 0 0 0 0 -0 -0 -0 -0 -0 0 0 0 0 0 0 0 -0 0 0 0 0 0 0 0 0 0 0 -0 -0
-0 -0 0 0 0 -0 -0 0 0 0 0 0 0 0 0 0 0 0 -0 -0 -0 -0 -0 -0 -0 0 0 0 0 0 0 -0 0 -0 -0 0 0 0 0 -0 0 0 0 0
Wind_Speed_500mb
8 19 27 29 31 31 28 33 25 23 30 9 21 34 21 41 31 26 21 19 19 10 10 8 6 5 9 9 14 15 17 20 25 27 30 34 38 43 49 53 56 57 59 59
5 10 19 33 40 29 8 18 8 25 9 34 20 42 34 13 23 25 20 24 18 10 2 4 6 11 16 18 21 22 25 29 33 36 39 41 46 51 54 53 53 53 56 59
5 14 16 21 34 19 27 28 11 12 18 37 37 39 51 18 14 14 24 22 10 4 5 6 10 12 16 23 26 28 32 35 39 43 46 48 49 49 50 52 56 58 63 66
5 10 9 13 10 13 13 23 26 10 22 23 24 32 18 20 22 20 17 11 8 2 8 10 12 19 24 27 31 35 39 41 44 47 49 49 49 52 56 61 62 58 55 54
6 10 28 20 20 13 19 17 20 13 24 23 25 20 21 21 24 24 21 13 8 11 14 16 20 26 25 31 36 40 44 47 47 48 52 56 59 57 57 63 69 73 75 79
7 5 10 22 16 9 10 18 12 9 23 21 17 12 18 25 21 16 8 7 10 13 16 22 23 26 29 36 43 47 47 49 51 53 53 54 57 63 71 76 83 90 91 86
9 6 12 18 11 3 10 13 18 18 26 23 24 25 20 12 8 6 9 12 12 17 20 25 29 38 40 44 46 48 49 51 50 52 60 65 74 81 85 86 92 86 76 66
4 9 9 8 8 7 17 25 23 40 36 26 23 14 8 5 6 10 14 15 20 24 27 33 38 42 44 45 47 47 44 50 58 65 71 79 83 84 73 64 60 54 53 58
9 14 32 45 41 30 26 30 28 27 19 15 9 9 11 12 14 12 15 20 22 27 33 37 41 41 42 43 45 55 64 68 72 75 67 58 56 53 53 45 44 52 56 62
15 25 27 37 41 30 39 25 17 11 6 8 10 13 13 15 19 18 21 25 28 31 38 41 39 40 38 41 56 65 70 67 63 58 54 50 46 45 42 41 46 49 53 61
26 26 32 26 23 19 16 12 6 4 8 15 6 9 16 19 21 23 26 27 32 34 35 36 37 40 49 59 63 58 58 57 54 49 46 45 40 36 38 42 40 45 50 55
6 17 31 20 19 14 10 23 22 14 14 20 17 14 13 15 22 24 27 33 34 33 34 34 45 55 55 52 52 49 53 50 46 44 42 40 41 43 40 39 38 39 40 42
17 19 19 12 14 23 25 20 15 16 14 13 12 11 14 19 22 31 30 32 34 31 33 48 55 49 47 44 44 43 42 41 41 40 40 40 39 42 49 44 39 35 33 34
23 11 23 22 15 14 14 12 13 9 11 11 13 13 14 18 25 29 31 32 29 39 51 48 45 43 42 41 37 36 37 33 34 37 36 34 34 38 38 42 47 51 34 32
25 21 19 15 17 13 10 9 10 9 12 13 11 13 17 22 27 29 30 35 48 46 39 38 40 41 39 34 33 33 31 28 31 31 29 36 36 38 32 47 51 47 38 32
18 16 15 12 8 3 6 12 13 14 17 20 19 22 24 24 24 24 34 44 39 37 34 35 38 37 33 29 29 27 24 24 26 26 34 37 32 29 41 38 43 42 34 41
14 12 17 17 17 19 21 18 16 17 17 16 21 21 20 21 19 24 29 30 28 27 25 34 35 33 27 25 27 25 23 27 22 27 31 26 26 28 33 37 36 46 43 35
16 16 14 17 20 17 16 17 16 15 11 14 15 18 18 17 17 23 24 23 23 18 25 27 29 27 24 24 24 23 24 28 28 26 22 17 24 30 30 33 34 53 59 42
19 18 21 20 19 16 14 13 12 10 10 12 18 17 13 15 17 18 16 23 24 25 29 28 28 26 24 25 24 24 23 25 27 28 27 21 16 21 28 31 35 41 43 43
19 20 21 20 20 17 12 13 8 9 10 10 9 9 9 12 17 17 19 26 28 29 31 35 32 30 29 28 28 26 26 28 30 31 32 30 26 23 25 26 27 26 31 39
19 19 20 19 17 16 14 12 11 9 9 9 8 11 13 19 29 25 34 43 44 44 48 50 48 46 41 34 34 32 32 33 35 36 35 35 32 32 26 26 31 32 33 35
18 19 19 19 17 16 16 14 14 13 13 16 19 22 28 29 30 44 49 48 45 50 51 50 53 52 46 45 43 42 42 41 42 43 43 40 38 36 36 33 31 32 34 34
21 21 22 21 20 19 20 19 21 22 23 24 30 33 36 40 38 42 49 54 59 56 51 50 50 54 58 61 62 63 63 63 64 64 62 57 51 46 41 38 35 34 34 36
22 22 24 24 21 24 26 26 28 29 30 28 27 30 32 32 38 43 46 52 57 56 57 54 54 58 65 69 65 63 63 63 64 67 70 72 72 68 62 56 50 45 40 38
22 22 19 26 29 26 26 32 36 41 37 35 36 37 36 38 41 41 46 49 54 57 54 53 52 53 58 61 65 67 66 66 66 67 68 70 71 72 72 72 71 67 60 53
20 21 23 23 28 28 28 32 35 28 37 47 43 33 31 33 35 36 39 41 42 48 55 55 51 51 52 53 56 60 61 62 65 67 67 70 72 73 73 74 74 74 74 71
19 19 20 22 22 27 31 33 37 38 34 32 33 38 41 40 41 42 40 39 40 41 46 52 51 50 49 54 60 63 64 67 67 67 68 68 69 69 69 70 71 72 73 72
Wind_Direction_500mb
38 334 203 194 214 222 159 241 228 127 153 15 34 27 143 157 154 143 149 136 120 103 57 87 126 12 351 343 330 319 314 307 300 299 294 290 286 282 282 283 284 285 283 280
175 282 291 228 217 229 114 89 55 71 79 151 144 77 9 357 172 166 168 143 131 139 156 305 325 330 327 321 314 310 308 305 300 300 297 294 293 293 294 294 291 287 282 279
227 305 259 250 217 211 163 118 77 97 221 152 155 169 192 143 120 155 122 118 131 149 262 245 291 305 313 306 306 306 302 301 300 299 298 297 296 292 290 288 284 281 280 281
24 209 162 271 341 289 184 165 164 123 73 81 95 107 106 125 143 117 119 160 173 224 305 309 305 315 307 303 303 302 300 300 301 301 300 299 296 291 288 286 287 288 284 278
142 163 133 133 172 164 157 126 111 149 115 104 88 104 115 90 79 64 61 43 6 344 332 322 314 308 302 300 299 300 302 304 304 303 301 299 297 296 287 280 278 278 277 278
211 163 91 97 75 118 155 107 125 159 118 122 143 154 81 71 74 61 36 350 330 324 324 315 312 312 307 305 305 307 307 306 305 304 303 295 285 283 281 282 284 287 289 289
117 100 69 82 80 4 189 90 103 92 124 120 82 93 115 100 74 31 323 322 336 324 327 322 319 316 314 311 311 308 306 304 301 294 287 286 283 283 287 290 289 288 288 291
173 110 108 102 97 48 103 82 77 60 59 69 74 96 86 26 332 329 322 329 331 326 327 322 319 317 314 312 309 303 298 290 291 291 292 296 295 294 294 294 292 292 296 297
41 92 78 76 92 80 78 71 67 75 63 63 23 329 317 317 326 342 349 335 331 327 321 317 316 316 313 312 301 290 294 298 299 302 302 305 305 305 306 304 307 304 306 306
104 89 97 93 66 76 75 75 70 68 26 354 319 312 334 345 5 348 337 342 329 324 318 317 316 316 305 292 291 299 305 309 313 316 316 315 310 307 306 308 308 308 306 302
97 115 100 91 96 83 67 47 32 337 358 37 23 3 356 352 349 339 333 328 325 318 316 316 313 294 294 301 308 313 315 320 325 327 326 327 327 327 323 320 318 311 305 301
104 55 114 103 93 76 63 56 42 31 32 49 28 21 3 340 332 334 330 324 320 319 319 313 297 307 315 319 320 322 326 331 333 334 337 339 338 337 337 333 330 324 315 302
74 65 85 89 76 62 65 62 47 34 17 348 355 10 345 330 328 332 324 323 323 320 315 306 318 324 325 327 332 331 333 339 341 343 342 343 347 346 343 355 348 341 330 321
64 50 76 50 71 61 56 47 38 8 9 17 357 348 339 333 328 327 327 320 313 310 315 322 326 331 335 335 337 344 343 346 344 348 351 353 355 351 349 351 351 350 354 348
46 53 52 51 61 66 59 41 45 350 331 327 347 8 4 342 330 324 315 301 306 317 325 329 334 340 343 345 348 347 348 349 350 360 6 4 358 350 346 354 353 353 7 18
51 58 60 71 77 37 333 328 332 5 5 359 358 352 340 330 318 316 295 307 326 334 336 338 342 346 350 351 352 352 355 355 4 11 12 3 359 356 349 347 350 1 7 2
69 27 8 13 7 7 27 14 7 2 354 352 342 328 326 321 318 304 321 331 335 339 342 343 346 350 354 355 355 360 1 1 6 23 7 355 3 1 353 356 10 19 8 0
56 49 44 44 39 20 7 358 350 342 349 337 318 303 325 329 334 331 338 344 348 354 352 357 357 359 3 6 9 7 8 4 9 9 3 2 359 356 4 2 19 7 2 23
62 57 64 56 30 15 5 1 353 6 349 326 308 327 333 339 347 353 6 1 10 18 17 14 14 13 16 15 15 22 20 14 18 16 14 7 358 358 356 5 22 2 1 21
58 61 60 35 31 27 20 6 19 25 356 319 322 346 13 17 27 42 41 29 31 31 32 31 30 30 29 27 33 36 34 26 25 22 21 22 18 13 12 6 9 15 15 16
54 58 45 33 34 35 36 37 31 25 4 18 48 55 60 69 55 56 66 62 58 58 56 48 49 47 41 41 46 47 43 37 33 30 25 26 28 29 26 19 16 19 18 18
56 55 43 36 45 40 37 43 49 58 67 67 68 81 85 77 71 74 70 65 65 65 62 58 54 49 45 51 55 55 52 48 45 42 38 34 32 32 31 27 23 19 15 13
64 70 53 51 57 57 55 57 59 68 77 88 90 78 77 84 81 75 73 70 68 64 63 61 61 60 64 66 66 66 64 61 58 55 51 48 43 39 38 37 31 24 22 18
75 80 69 63 72 68 65 65 70 73 78 84 88 95 91 81 83 85 84 79 73 65 61 63 64 67 67 63 62 63 64 62 61 59 56 54 52 50 48 46 45 40 33 27
85 85 80 62 76 76 71 67 71 70 75 80 83 85 86 86 87 89 86 83 81 74 64 58 57 58 61 63 61 59 60 60 58 58 57 55 52 50 50 50 49 48 45 39
95 92 90 75 69 80 77 72 65 72 64 62 65 73 85 90 93 97 92 90 89 87 81 68 57 60 54 59 63 64 61 59 58 57 55 55 53 51 49 48 47 46 45 43
103 100 96 92 83 79 82 80 82 78 75 66 61 55 71 80 83 86 88 85 84 88 86 86 77 64 58 61 63 65 64 62 59 56 54 50 49 48 45 46 44 42 43 42
Wind_Speed_850mb
8 19 27 29 31 31 28 33 25 23 30 9 21 34 21 41 31 26 21 19 19 10 10 8 6 5 9 9 14 15 17 20 25 27 30 34 38 43 49 53 56 57 59 59
5 10 19 33 40 29 8 18 8 25 9 34 20 42 34 13 23 25 20 24 18 10 2 4 6 11 16 18 21 22 25 29 33 36 39 41 46 51 54 53 53 53 56 59
5 14 16 21 34 19 27 28 11 12 18 37 37 39 51 18 14 14 24 22 10 4 5 6 10 12 16 23 26 28 32 35 39 43 46 48 49 49 50 52 56 58 63 66
5 10 9 13 10 13 13 23 26 10 22 23 24 32 18 20 22 20 17 11 8 2 8 10 12 19 24 27 31 35 39 41 44 47 49 49 49 52 56 61 62 58 55 54
6 10 28 20 20 13 19 17 20 13 24 23 25 20 21 21 24 24 21 13 8 11 14 16 20 26 25 31 36 40 44 47 47 48 52 56 59 57 57 63 69 73 75 79
7 5 10 22 16 9 10 18 12 9 23 21 17 12 18 25 21 16 8 7 10 13 16 22 23 26 29 36 43 47 47 49 51 53 53 54 57 63 71 76 83 90 91 86
9 6 12 18 11 3 10 13 18 18 26 23 24 25 20 12 8 6 9 12 12 17 20 25 29 38 40 44 46 48 49 51 50 52 60 65 74 81 85 86 92 86 76 66
4 9 9 8 8 7 17 25 23 40 36 26 23 14 8 5 6 10 14 15 20 24 27 33 38 42 44 45 47 47 44 50 58 65 71 79 83 84 73 64 60 54 53 58
9 14 32 45 41 30 26 30 28 27 19 15 9 9 11 12 14 12 15 20 22 27 33 37 41 41 42 43 45 55 64 68 72 75 67 58 56 53 53 45 44 52 56 62
15 25 27 37 41 30 39 25 17 11 6 8 10 13 13 15 19 18 21 25 28 31 38 41 39 40 38 41 56 65 70 67 63 58 54 50 46 45 42 41 46 49 53 61
26 26 32 26 23 19 16 12 6 4 8 15 6 9 16 19 21 23 26 27 32 34 35 36 37 40 49 59 63 58 58 57 54 49 46 45 40 36 38 42 40 45 50 55
6 17 31 20 19 14 10 23 22 14 14 20 17 14 13 15 22 24 27 33 34 33 34 34 45 55 55 52 52 49 53 50 46 44 42 40 41 43 40 39 38 39 40 42
17 19 19 12 14 23 25 20 15 16 14 13 12 11 14 19 22 31 30 32 34 31 33 48 55 49 47 44 44 43 42 41 41 40 40 40 39 42 49 44 39 35 33 34
23 11 23 22 15 14 14 12 13 9 11 11 13 13 14 18 25 29 31 32 29 39 51 48 45 43 42 41 37 36 37 33 34 37 36 34 34 38 38 42 47 51 34 32
25 21 19 15 17 13 10 9 10 9 12 13 11 13 17 22 27 29 30 35 48 46 39 38 40 41 39 34 33 33 31 28 31 31 29 36 36 38 32 47 51 47 38 32
18 16 15 12 8 3 6 12 13 14 17 20 19 22 24 24 24 24 34 44 39 37 34 35 38 37 33 29 29 27 24 24 26 26 34 37 32 29 41 38 43 42 34 41
14 12 17 17 17 19 21 18 16 17 17 16 21 21 20 21 19 24 29 30 28 27 25 34 35 33 27 25 27 25 23 27 22 27 31 26 26 28 33 37 36 46 43 35
16 16 14 17 20 17 16 17 16 15 11 14 15 18 18 17 17 23 24 23 23 18 25 27 29 27 24 24 24 23 24 28 28 26 22 17 24 30 30 33 34 53 59 42
19 18 21 20 19 16 14 13 12 10 10 12 18 17 13 15 17 18 16 23 24 25 29 28 28 26 24 25 24 24 23 25 27 28 27 21 16 21 28 31 35 41 43 43
19 20 21 20 20 17 12 13 8 9 10 10 9 9 9 12 17 17 19 26 28 29 31 35 32 30 29 28 28 26 26 28 30 31 32 30 26 23 25 26 27 26 31 39
19 19 20 19 17 16 14 12 11 9 9 9 8 11 13 19 29 25 34 43 44 44 48 50 48 46 41 34 34 32 32 33 35 36 35 35 32 32 26 26 31 32 33 35
18 19 19 19 17 16 16 14 14 13 13 16 19 22 28 29 30 44 49 48 45 50 51 50 53 52 46 45 43 42 42 41 42 43 43 40 38 36 36 33 31 32 34 34
21 21 22 21 20 19 20 19 21 22 23 24 30 33 36 40 38 42 49 54 59 56 51 50 50 54 58 61 62 63 63 63 64 64 62 57 51 46 41 38 35 34 34 36
22 22 24 24 21 24 26 26 28 29 30 28 27 30 32 32 38 43 46 52 57 56 57 54 54 58 65 69 65 63 63 63 64 67 70 72 72 68 62 56 50 45 40 38
22 22 19 26 29 26 26 32 36 41 37 35 36 37 36 38 41 41 46 49 54 57 54 53 52 53 58 61 65 67 66 66 66 67 68 70 71 72 72 72 71 67 60 53
20 21 23 23 28 28 28 32 35 28 37 47 43 33 31 33 35 36 39 41 42 48 55 55 51 51 52 53 56 60 61 62 65 67 67 70 72 73 73 74 74 74 74 71
19 19 20 22 22 27 31 33 37 38 34 32 33 38 41 40 41 42 40 39 40 41 46 52 51 50 49 54 60 63 64 67 67 67 68 68 69 69 69 70 71 72 73 72
Wind_Direction_850mb
38 334 203 194 214 222 159 241 228 127 153 15 34 27 143 157 154 143 149 136 120 103 57 87 126 12 351 343 330 319 314 307 300 299 294 290 286 282 282 283 284 285 283 280
175 282 291 228 217 229 114 89 55 71 79 151 144 77 9 357 172 166 168 143 131 139 156 305 325 330 327 321 314 310 308 305 300 300 297 294 293 293 294 294 291 287 282 279
227 305 259 250 217 211 163 118 77 97 221 152 155 169 192 143 120 155 122 118 131 149 262 245 291 305 313 306 306 306 302 301 300 299 298 297 296 292 290 288 284 281 280 281
24 209 162 271 341 289 184 165 164 123 73 81 95 107 106 125 143 117 119 160 173 224 305 309 305 315 307 303 303 302 300 300 301 301 300 299 296 291 288 286 287 288 284 278
142 163 133 133 172 164 157 126 111 149 115 104 88 104 115 90 79 64 61 43 6 344 332 322 314 308 302 300 299 300 302 304 304 303 301 299 297 296 287 280 278 278 277 278
211 163 91 97 75 118 155 107 125 159 118 122 143 154 81 71 74 61 36 350 330 324 324 315 312 312 307 305 305 307 307 306 305 304 303 295 285 283 281 282 284 287 289 289
117 100 69 82 80 4 189 90 103 92 124 120 82 93 115 100 74 31 323 322 336 324 327 322 319 316 314 311 311 308 306 304 301 294 287 286 283 283 287 290 289 288 288 291
173 110 108 102 97 48 103 82 77 60 59 69 74 96 86 26 332 329 322 329 331 326 327 322 319 317 314 312 309 303 298 290 291 291 292 296 295 294 294 294 292 292 296 297
41 92 78 76 92 80 78 71 67 75 63 63 23 329 317 317 326 342 349 335 331 327 321 317 316 316 313 312 301 290 294 298 299 302 302 305 305 305 306 304 307 304 306 306
104 89 97 93 66 76 75 75 70 68 26 354 319 312 334 345 5 348 337 342 329 324 318 317 316 316 305 292 291 299 305 309 313 316 316 315 310 307 306 308 308 308 306 302
97 115 100 91 96 83 67 47 32 337 358 37 23 3 356 352 349 339 333 328 325 318 316 316 313 294 294 301 308 313 315 320 325 327 326 327 327 327 323 320 318 311 305 301
104 55 114 103 93 76 63 56 42 31 32 49 28 21 3 340 332 334 330 324 320 319 319 313 297 307 315 319 320 322 326 331 333 334 337 339 338 337 337 333 330 324 315 302
74 65 85 89 76 62 65 62 47 34 17 348 355 10 345 330 328 332 324 323 323 320 315 306 318 324 325 327 332 331 333 339 341 343 342 343 347 346 343 355 348 341 330 321
64 50 76 50 71 61 56 47 38 8 9 17 357 348 339 333 328 327 327 320 313 310 315 322 326 331 335 335 337 344 343 346 344 348 351 353 355 351 349 351 351 350 354 348
46 53 52 51 61 66 59 41 45 350 331 327 347 8 4 342 330 324 315 301 306 317 325 329 334 340 343 345 348 347 348 349 350 360 6 4 358 350 346 354 353 353 7 18
51 58 60 71 77 37 333 328 332 5 5 359 358 352 340 330 318 316 295 307 326 334 336 338 342 346 350 351 352 352 355 355 4 11 12 3 359 356 349 347 350 1 7 2
69 27 8 13 7 7 27 14 7 2 354 352 342 328 326 321 318 304 321 331 335 339 342 343 346 350 354 355 355 360 1 1 6 23 7 355 3 1 353 356 10 19 8 0
56 49 44 44 39 20 7 358 350 342 349 337 318 303 325 329 334 331 338 344 348 354 352 357 357 359 3 6 9 7 8 4 9 9 3 2 359 356 4 2 19 7 2 23
62 57 64 56 30 15 5 1 353 6 349 326 308 327 333 339 347 353 6 1 10 18 17 14 14 13 16 15 15 22 20 14 18 16 14 7 358 358 356 5 22 2 1 21
58 61 60 35 31 27 20 6 19 25 356 319 322 346 13 17 27 42 41 29 31 31 32 31 30 30 29 27 33 36 34 26 25 22 21 22 18 13 12 6 9 15 15 16
54 58 45 33 34 35 36 37 31 25 4 18 48 55 60 69 55 56 66 62 58 58 56 48 49 47 41 41 46 47 43 37 33 30 25 26 28 29 26 19 16 19 18 18
56 55 43 36 45 40 37 43 49 58 67 67 68 81 85 77 71 74 70 65 65 65 62 58 54 49 45 51 55 55 52 48 45 42 38 34 32 32 31 27 23 19 15 13
64 70 53 51 57 57 55 57 59 68 77 88 90 78 77 84 81 75 73 70 68 64 63 61 61 60 64 66 66 66 64 61 58 55 51 48 43 39 38 37 31 24 22 18
75 80 69 63 72 68 65 65 70 73 78 84 88 95 91 81 83 85 84 79 73 65 61 63 64 67 67 63 62 63 64 62 61 59 56 54 52 50 48 46 45 40 33 27
85 85 80 62 76 76 71 67 71 70 75 80 83 85 86 86 87 89 86 83 81 74 64 58 57 58 61 63 61 59 60 60 58 58 57 55 52 50 50 50 49 48 45 39
95 92 90 75 69 80 77 72 65 72 64 62 65 73 85 90 93 97 92 90 89 87 81 68 57 60 54 59 63 64 61 59 58 57 55 55 53 51 49 48 47 46 45 43
103 100 96 92 83 79 82 80 82 78 75 66 61 55 71 80 83 86 88 85 84 88 86 86 77 64 58 61 63 65 64 62 59 56 54 50 49 48 45 46 44 42 43 42